Showing default

SEDNA-1, 60580

Orbit data source: Space-Track

SEDNA-1, 60580 is a payload satellite owned by AAC ClydeSpace (US) in SSO that was launched on Fri, 16 Aug 2024 UTC via an FALCON 9 launch vehicle from the Air Force Western Test Range (AFWTR). Payload-class satellites include a variety of spacecraft equipped with specific instruments for various scientific and technological missions. These include communications satellites like Starlink; space stations such as the ISS; scientific satellites like the Hubble; Earth observation satellites from companies like Planet Labs, Umbra, and HawkEye 360; GPS; miniature CubeSats for education and research; and military/defense satellites.

Loading next visibility...
Identifier
60580, 2024-149DS
Orbit
SSO
Country
Flag of USUS
Related business
Manufacturer
AAC ClydeSpace
Mission
Operational Commercial Communications
Bus & Motor
CUBESAT 3U, Unknown motor
Mass
4 kg wet, 4 kg dry
Launch date (UTC)
2024-08-16 (2 years ago)
Launch vehicle
FALCON 9
Launch site
Air Force Western Test Range (AFWTR)
Object type
Payload
Rocket body
Debris
Shape & HBR
Box, 0.1 m
Radar Cross Section
0.035 m², Medium (>0.1 m² and < 1m²)

Expand to show TLE details & history
Last TLE update: 6 hours ago

TLE from 6 hours ago
0 SEDNA-1
1 60580U 24149DS  26126.83419863  .00006175  00000-0  42174-3 0  9998
2 60580  97.6630 207.5051 0010317 126.9657 233.2516 15.06495342 94161
Epoch: 2026-05-06T20:01Z
TLE epoch observation values (Epoch: 2026-05-06T20:01:14.761Z)
Latitude
-0.00005°
Longitude
42.5046°
Altitude
554.264 km
Speed
7.582 km/s
True Right ascension
13h 50m 01s
True Declination
0° 00' 00"
Sunlit
Object was in full shadow at epoch
Visualization orbit readout
Latitude
Unknown
Longitude
Unknown
Altitude
Unknown
Speed
Unknown
Apparent Right ascension
Unknown
Apparent Declination
Unknown
Sunlit
N/A
Visualization observer readout
Local Sidereal Time
10:26:36
Azimuth
Unknown
Elevation
Unknown
Doppler factor
Unknown
Orbital elements
Apogee altitude
551.056 km
Perigee altitude
536.773 km
Semi-major axis
6,922.051 km
Eccentricity
0.00103
Inclination
97.663°
RAAN
207.5051°
Arg. of periapsis
126.9657°
True anomaly
233.15694°
Mean anomaly
233.2516°
Eccentric anomaly
233.20426°
Mean motion
3.76869 °/min
Orbital period
95.52 mins
BSTAR
0.00042174
Loading maneuver chart data...
Computing Atmospheric mass density...
Loading historical data...
Loading historical data...
Loading historical data...
Loading historical data...
Loading historical data...
Loading historical data...
Loading historical data...

Documentation

Showing up to 5 results
|